FW4356 Weather Reports


Display with metric or nautical units.
time (UTC)temp
F
wind
direction
speed
MPH
gust
MPH
rain 1hr
in
rain 24hr
in
rain mn
in
humidity
%
barometer
mb
20260507040508 47 267 0.0 2.0 0.00 0.35 0.00 98 1006.7
20260507040007 47 279 0.0 2.0 0.00 0.35 0.00 98 1006.5
20260507035506 47 279 0.0 2.0 0.00 0.35 0.35 98 1006.4
20260507035005 48 279 0.0 2.0 0.00 0.35 0.35 98 1006.4
20260507034505 48 279 0.0 2.0 0.00 0.35 0.35 98 1006.3
20260507034004 48 279 0.0 3.0 0.01 0.35 0.35 98 1006.3
20260507033504 48 278 0.0 3.0 0.02 0.35 0.35 98 1006.3
20260507033003 48 278 0.0 2.0 0.03 0.35 0.35 98 1006.3
20260507032503 48 278 0.0 2.0 0.03 0.35 0.35 98 1006.2
20260507032002 49 278 0.0 2.0 0.04 0.35 0.35 98 1006.2
20260507031501 49 278 0.0 2.0 0.04 0.35 0.35 98 1006.1
20260507031100 49 278 0.0 2.0 0.04 0.35 0.35 98 1006.1
20260507030558 49 278 0.0 3.0 0.04 0.35 0.35 97 1006.0
20260507030104 49 278 0.0 3.0 0.04 0.35 0.35 97 1006.1
20260507025556 50 279 0.0 2.0 0.05 0.35 0.35 97 1006.1
20260507025056 50 279 0.0 2.0 0.05 0.35 0.35 97 1006.1
20260507024555 50 279 0.0 2.0 0.05 0.35 0.35 97 1006.2
20260507024053 51 279 0.0 4.0 0.04 0.34 0.34 97 1006.3
20260507023554 51 279 0.0 5.0 0.03 0.33 0.33 96 1006.4
20260507023051 52 318 1.0 5.0 0.02 0.32 0.32 97 1006.3
20260507022550 52 151 1.0 7.0 0.02 0.32 0.32 98 1006.2
20260507022050 53 313 0.0 7.0 0.02 0.31 0.31 98 1006.0
20260507021548 53 271 0.0 4.0 0.02 0.31 0.31 98 1005.7
20260507021047 53 125 0.0 3.0 0.03 0.31 0.31 98 1005.5
20260507020546 53 191 0.0 3.0 0.09 0.31 0.31 98 1005.6
20260507020056 53 170 1.0 3.0 0.12 0.31 0.31 98 1005.8
20260507015544 54 272 0.0 2.0 0.12 0.30 0.30 98 1005.6
20260507015043 54 145 0.0 3.0 0.14 0.30 0.30 99 1005.5
20260507014549 54 146 0.0 3.0 0.14 0.30 0.30 98 1005.2
20260507014042 55 336 0.0 2.0 0.14 0.30 0.30 98 1005.4
20260507013542 55 336 0.0 2.0 0.14 0.30 0.30 98 1005.4
20260507013041 55 336 0.0 2.0 0.14 0.30 0.30 98 1005.4
20260507012542 56 336 0.0 2.0 0.14 0.30 0.30 98 1005.2
20260507012040 56 79 0.0 3.0 0.13 0.28 0.28 99 1005.2
20260507011548 56 99 0.0 3.0 0.13 0.28 0.28 99 1005.1
20260507011039 57 28 0.0 3.0 0.12 0.28 0.28 100 1005.1
20260507010539 57 23 1.0 4.0 0.05 0.21 0.21 100 1005.0
20260507010038 57 83 1.0 4.0 0.03 0.19 0.19 99 1004.6
20260507005539 57 290 0.0 3.0 0.02 0.21 0.18 99 1004.7
20260507005041 57 274 0.0 4.0 0.00 0.19 0.16 99 1004.6
20260507004537 57 134 0.0 7.0 0.00 0.19 0.16 99 1004.5
20260507004038 57 114 1.0 7.0 0.00 0.19 0.16 99 1004.3
20260507003542 57 110 0.0 6.0 0.00 0.19 0.16 99 1004.4
20260507003037 57 115 2.0 6.0 0.00 0.19 0.16 99 1004.2
20260507002537 57 48 1.0 5.0 0.00 0.19 0.16 99 1004.2
20260507002037 57 337 1.0 4.0 0.00 0.19 0.16 99 1004.0
20260507001548 57 312 1.0 4.0 0.00 0.19 0.16 99 1004.2
20260507001036 57 332 0.0 4.0 0.00 0.19 0.16 99 1004.1
20260507000537 57 326 0.0 7.0 0.00 0.19 0.16 99 1004.1
20260507000039 57 350 2.0 7.0 0.00 0.19 0.16 99 1004.1
20260506235536 57 233 0.0 7.0 0.00 0.19 0.16 99 1004.2
20260506235036 57 268 1.0 6.0 0.00 0.19 0.16 99 1004.0
20260506234543 57 349 0.0 6.0 0.00 0.19 0.16 99 1004.0
20260506234035 57 33 1.0 7.0 0.00 0.19 0.16 99 1004.0
20260506233535 57 330 2.0 7.0 0.00 0.19 0.16 99 1003.9
20260506233034 57 269 1.0 7.0 0.00 0.19 0.16 99 1003.8
20260506232533 57 182 0.0 5.0 0.00 0.19 0.16 99 1003.7
20260506232034 57 356 1.0 5.0 0.00 0.19 0.16 99 1003.7
20260506231536 57 209 0.0 8.0 0.00 0.19 0.16 99 1003.8
20260506231033 57 231 1.0 8.0 0.00 0.19 0.16 98 1004.0
20260506230532 57 146 1.0 8.0 0.00 0.19 0.16 98 1004.0
20260506230031 57 83 1.0 6.0 0.00 0.19 0.16 99 1004.1
20260506225531 57 154 1.0 4.0 0.00 0.19 0.16 99 1004.0
20260506225031 57 156 0.0 4.0 0.00 0.19 0.16 98 1004.0
20260506224532 57 264 1.0 5.0 0.00 0.19 0.16 98 1003.9
20260506224030 57 164 0.0 9.0 0.00 0.19 0.16 98 1004.1
20260506223530 57 317 2.0 9.0 0.00 0.19 0.16 98 1004.1
20260506223031 57 166 1.0 4.0 0.00 0.19 0.16 98 1004.1
20260506222530 57 28 1.0 5.0 0.00 0.19 0.16 98 1004.2
20260506222032 57 307 2.0 7.0 0.00 0.19 0.16 98 1004.1
20260506221530 57 229 3.0 8.0 0.00 0.19 0.16 97 1004.2
20260506221029 57 314 1.0 8.0 0.00 0.19 0.16 97 1004.2
20260506220529 57 340 3.0 6.0 0.00 0.19 0.16 97 1004.2
20260506220129 57 39 1.0 12.0 0.00 0.19 0.16 97 1004.2
20260506215528 58 353 2.0 12.0 0.00 0.19 0.16 97 1004.1
20260506215028 58 129 2.0 7.0 0.00 0.19 0.16 97 1004.1
20260506214528 58 239 0.0 9.0 0.00 0.19 0.16 96 1004.2
20260506214028 58 23 2.0 9.0 0.00 0.19 0.16 97 1004.2
20260506213530 58 134 2.0 8.0 0.00 0.19 0.16 96 1004.0
20260506213027 58 237 2.0 9.0 0.00 0.19 0.16 97 1004.1
20260506212532 58 154 2.0 9.0 0.00 0.19 0.16 97 1004.1
20260506212028 58 119 2.0 8.0 0.00 0.19 0.16 97 1004.0
20260506211526 58 314 0.0 8.0 0.01 0.19 0.16 97 1004.0
20260506211026 58 328 3.0 9.0 0.01 0.19 0.16 97 1004.1
20260506210529 58 232 3.0 9.0 0.01 0.19 0.16 97 1004.3
20260506210026 58 299 3.0 10.0 0.01 0.19 0.16 97 1004.2
20260506205525 58 50 1.0 10.0 0.02 0.19 0.16 97 1004.1
20260506205028 58 110 1.0 9.0 0.02 0.19 0.16 97 1004.2
20260506204525 58 277 2.0 5.0 0.02 0.19 0.16 97 1004.3
20260506204027 58 189 1.0 10.0 0.03 0.19 0.16 97 1004.3
20260506203524 59 214 4.0 10.0 0.03 0.19 0.16 97 1004.4
20260506203032 59 216 4.0 9.0 0.04 0.19 0.16 97 1004.4
20260506202527 59 239 2.0 8.0 0.06 0.19 0.16 97 1004.4
20260506202024 59 23 2.0 8.0 0.07 0.19 0.16 98 1004.5
20260506201523 59 185 3.0 11.0 0.07 0.18 0.15 98 1004.4
20260506201022 59 61 2.0 11.0 0.07 0.18 0.15 97 1004.4
20260506200522 59 143 3.0 11.0 0.07 0.18 0.15 98 1004.5
20260506200025 59 345 2.0 8.0 0.08 0.18 0.15 97 1004.6
20260506195520 59 14 1.0 8.0 0.07 0.17 0.14 97 1004.8
20260506195021 59 278 2.0 11.0 0.07 0.17 0.14 97 1004.7
20260506194520 59 187 3.0 12.0 0.07 0.17 0.14 97 1004.7
20260506194020 59 272 3.0 12.0 0.06 0.16 0.13 97 1004.7
20260506193520 59 161 2.0 10.0 0.05 0.15 0.12 96 1004.9
20260506193019 59 174 2.0 6.0 0.05 0.15 0.12 96 1004.9
20260506192519 59 73 2.0 5.0 0.03 0.13 0.10 96 1004.9
20260506192019 60 139 2.0 8.0 0.03 0.12 0.09 96 1004.9
20260506191519 60 306 1.0 8.0 0.02 0.11 0.08 95 1005.0
20260506191019 60 162 2.0 8.0 0.03 0.11 0.08 95 1005.0
20260506190518 60 145 1.0 12.0 0.03 0.11 0.08 95 1005.0
20260506190027 60 124 2.0 12.0 0.02 0.10 0.07 97 1004.8
20260506185518 59 144 0.0 4.0 0.03 0.10 0.07 97 1004.7
20260506185017 59 139 2.0 5.0 0.03 0.10 0.07 96 1004.7
20260506184516 59 272 1.0 6.0 0.03 0.10 0.07 95 1004.7
20260506184016 59 110 2.0 6.0 0.04 0.10 0.07 95 1004.8
20260506183515 59 79 3.0 6.0 0.04 0.10 0.07 95 1005.1
20260506183014 59 74 1.0 4.0 0.05 0.10 0.07 95 1005.5
20260506182513 59 349 1.0 5.0 0.05 0.09 0.06 96 1005.7
20260506182019 59 204 2.0 5.0 0.05 0.09 0.06 95 1005.7
20260506181512 59 318 2.0 4.0 0.06 0.09 0.06 95 1005.9
20260506181012 59 16 1.0 7.0 0.05 0.08 0.05 96 1006.1
20260506180511 59 267 2.0 7.0 0.05 0.08 0.05 95 1006.1
20260506180011 59 247 1.0 6.0 0.05 0.08 0.05 96 1005.9
20260506175510 59 13 1.0 5.0 0.04 0.07 0.04 95 1006.0
20260506175009 59 297 1.0 4.0 0.04 0.07 0.04 95 1006.1
20260506174514 60 82 0.0 4.0 0.04 0.07 0.04 94 1006.3
20260506174010 60 245 2.0 4.0 0.03 0.06 0.03 93 1006.3
20260506173509 60 357 0.0 4.0 0.02 0.05 0.02 94 1006.3
20260506173009 60 269 0.0 4.0 0.02 0.05 0.02 92 1006.3
20260506172507 61 224 0.0 4.0 0.01 0.04 0.01 91 1006.4
20260506172007 61 276 0.0 4.0 0.01 0.04 0.01 90 1006.5
20260506171514 61 316 1.0 7.0 0.00 0.03 0.00 88 1006.3
20260506171007 62 214 1.0 7.0 0.00 0.03 0.00 88 1006.2
20260506170508 62 63 1.0 8.0 0.00 0.03 0.00 87 1006.2
20260506170007 63 53 1.0 8.0 0.00 0.03 0.00 86 1006.4
20260506165510 63 278 2.0 8.0 0.00 0.03 0.00 83 1006.3
20260506165006 63 302 2.0 8.0 0.00 0.03 0.00 83 1006.4
20260506164505 64 139 2.0 7.0 0.00 0.03 0.00 81 1006.2
20260506164007 64 176 3.0 11.0 0.00 0.03 0.00 81 1006.3
20260506163505 64 162 1.0 11.0 0.00 0.03 0.00 80 1006.2
20260506163005 64 91 2.0 9.0 0.00 0.03 0.00 80 1006.2
20260506162505 64 18 2.0 9.0 0.00 0.03 0.00 80 1006.3
20260506162007 64 165 2.0 9.0 0.00 0.03 0.00 79 1006.4
20260506161505 64 80 2.0 8.0 0.00 0.03 0.00 79 1006.6
20260506161004 64 83 1.0 5.0 0.00 0.03 0.00 80 1006.7
20260506160506 64 295 1.0 8.0 0.00 0.03 0.00 79 1006.7
20260506160003 64 41 2.0 8.0 0.00 0.03 0.00 79 1006.8
20260506155502 64 106 1.0 6.0 0.00 0.03 0.00 80 1006.8
20260506155002 64 142 2.0 8.0 0.00 0.03 0.00 80 1006.9
20260506154503 64 12 1.0 8.0 0.00 0.03 0.00 79 1006.8
20260506154002 64 347 1.0 8.0 0.00 0.03 0.00 80 1007.1
20260506153501 64 44 2.0 6.0 0.00 0.03 0.00 80 1007.1
20260506153001 64 320 2.0 6.0 0.00 0.03 0.00 79 1007.2
20260506152502 64 23 1.0 7.0 0.00 0.03 0.00 79 1007.2
20260506152004 64 147 1.0 6.0 0.00 0.03 0.00 80 1007.2
20260506151601 64 126 1.0 6.0 0.00 0.03 0.00 79 1007.3
20260506151101 64 276 1.0 8.0 0.00 0.03 0.00 79 1007.5
20260506150559 64 64 2.0 8.0 0.00 0.03 0.00 78 1007.5
20260506150059 65 133 2.0 8.0 0.00 0.03 0.00 79 1007.3
20260506145600 65 120 2.0 6.0 0.00 0.03 0.00 78 1007.4
20260506145058 65 122 1.0 7.0 0.00 0.03 0.00 77 1007.3
20260506144558 65 118 2.0 6.0 0.00 0.03 0.00 79 1007.0
20260506144058 65 295 1.0 9.0 0.00 0.03 0.00 78 1007.1
20260506143558 65 109 1.0 9.0 0.00 0.03 0.00 77 1007.9
20260506143058 66 82 1.0 9.0 0.00 0.03 0.00 77 1007.4
20260506142558 66 210 2.0 11.0 0.00 0.03 0.00 77 1007.2
20260506142057 66 251 2.0 11.0 0.00 0.03 0.00 79 1007.2
20260506141555 65 28 3.0 8.0 0.00 0.03 0.00 81 1007.0
20260506141054 64 16 2.0 8.0 0.00 0.03 0.00 80 1006.9
20260506140556 64 209 2.0 10.0 0.00 0.03 0.00 81 1007.1
20260506140053 64 1 4.0 10.0 0.00 0.03 0.00 80 1007.1
20260506135551 64 356 2.0 9.0 0.00 0.03 0.00 81 1007.1
20260506135051 63 140 1.0 4.0 0.00 0.03 0.00 82 1006.9
20260506134550 63 120 1.0 6.0 0.00 0.03 0.00 84 1006.9
20260506134048 63 152 1.0 9.0 0.00 0.03 0.00 84 1006.9
20260506133547 62 307 2.0 9.0 0.00 0.03 0.00 84 1007.0
20260506133049 62 41 2.0 6.0 0.00 0.03 0.00 85 1007.1
20260506132550 61 293 2.0 5.0 0.00 0.03 0.00 86 1007.1
20260506132044 61 208 2.0 5.0 0.00 0.03 0.00 86 1007.3
20260506131545 61 23 0.0 4.0 0.00 0.03 0.00 87 1007.3
20260506131044 61 246 1.0 4.0 0.00 0.03 0.00 86 1007.4
20260506130543 61 356 1.0 6.0 0.00 0.03 0.00 87 1007.4
20260506130043 60 270 2.0 10.0 0.00 0.03 0.00 87 1007.5
20260506125541 60 242 4.0 10.0 0.00 0.03 0.00 87 1007.7
20260506125041 60 128 1.0 13.0 0.00 0.03 0.00 87 1007.5
20260506124544 60 328 4.0 13.0 0.00 0.03 0.00 86 1007.6
20260506124040 60 274 1.0 11.0 0.00 0.03 0.00 87 1007.6
20260506123540 60 234 1.0 11.0 0.00 0.03 0.00 88 1007.7
20260506123039 60 205 3.0 8.0 0.00 0.03 0.00 86 1007.6
20260506122538 60 213 2.0 7.0 0.00 0.03 0.00 87 1007.5
20260506122036 60 134 1.0 7.0 0.00 0.03 0.00 88 1007.4
20260506121543 59 225 2.0 8.0 0.00 0.03 0.00 88 1007.3
20260506121035 59 9 2.0 8.0 0.00 0.03 0.00 88 1007.4
20260506120534 59 37 2.0 8.0 0.00 0.03 0.00 88 1007.5
20260506120037 59 303 2.0 9.0 0.00 0.03 0.00 87 1007.5
20260506115533 59 233 1.0 9.0 0.00 0.03 0.00 87 1007.5
20260506115033 59 219 2.0 5.0 0.00 0.03 0.00 87 1007.7
20260506114533 59 293 2.0 10.0 0.00 0.03 0.00 87 1007.7
20260506114032 59 316 2.0 10.0 0.00 0.03 0.00 89 1007.8
20260506113534 58 330 1.0 9.0 0.00 0.03 0.00 89 1007.6
20260506113032 58 139 2.0 9.0 0.00 0.03 0.00 89 1007.6
20260506112533 58 333 2.0 7.0 0.00 0.03 0.00 88 1007.8
20260506112033 58 6 1.0 4.0 0.00 0.03 0.00 89 1007.8
20260506111534 58 23 1.0 8.0 0.00 0.03 0.00 88 1007.7
20260506111031 58 214 3.0 8.0 0.00 0.03 0.00 88 1007.8
20260506110531 58 277 0.0 4.0 0.00 0.03 0.00 89 1007.9
20260506110031 57 50 2.0 7.0 0.00 0.03 0.00 89 1007.7
20260506105530 57 335 0.0 7.0 0.00 0.03 0.00 90 1007.8
20260506105030 57 320 1.0 8.0 0.00 0.03 0.00 90 1007.9
20260506104529 57 243 2.0 8.0 0.00 0.03 0.00 90 1007.8
20260506104029 56 297 1.0 5.0 0.00 0.03 0.00 90 1007.8
20260506103529 56 285 0.0 4.0 0.00 0.03 0.00 91 1007.7
20260506103029 56 285 2.0 4.0 0.00 0.03 0.00 90 1007.6
20260506102530 56 322 0.0 4.0 0.00 0.03 0.00 91 1007.7
20260506102028 56 295 1.0 4.0 0.00 0.03 0.00 91 1007.7
20260506101528 55 230 1.0 4.0 0.00 0.03 0.00 91 1007.7
20260506101028 56 199 0.0 3.0 0.00 0.03 0.00 90 1007.7
20260506100527 56 331 0.0 5.0 0.00 0.03 0.00 90 1007.6
20260506100031 56 232 1.0 8.0 0.00 0.03 0.00 90 1007.7
20260506095527 55 259 2.0 8.0 0.00 0.03 0.00 90 1007.7
20260506095027 55 305 1.0 4.0 0.00 0.03 0.00 90 1007.7
20260506094526 55 353 1.0 4.0 0.00 0.03 0.00 90 1007.6
20260506094026 55 222 1.0 4.0 0.00 0.03 0.00 90 1007.5
20260506093526 55 306 0.0 3.0 0.00 0.03 0.00 90 1007.7
20260506093026 55 331 1.0 4.0 0.00 0.03 0.00 90 1007.7
20260506092527 55 294 1.0 6.0 0.00 0.03 0.00 89 1007.7
20260506092025 55 342 0.0 6.0 0.00 0.03 0.00 90 1007.5
20260506091524 55 331 1.0 8.0 0.00 0.03 0.00 90 1007.6
20260506091025 55 352 1.0 8.0 0.00 0.03 0.00 90 1007.6
20260506090523 55 42 1.0 4.0 0.00 0.03 0.00 90 1007.6
20260506090024 55 246 1.0 5.0 0.00 0.03 0.00 90 1007.7
20260506085522 55 294 0.0 5.0 0.00 0.03 0.00 89 1007.8
20260506085022 55 203 1.0 4.0 0.00 0.03 0.00 89 1007.8
20260506084533 55 175 1.0 4.0 0.00 0.03 0.00 89 1007.7
20260506084022 55 333 1.0 3.0 0.00 0.03 0.00 89 1007.8
20260506083523 55 333 1.0 3.0 0.00 0.03 0.00 89 1007.8
20260506083024 56 314 0.0 3.0 0.00 0.03 0.00 88 1007.9
20260506082523 56 330 0.0 3.0 0.00 0.03 0.00 88 1007.8
20260506082019 56 270 0.0 3.0 0.00 0.03 0.00 88 1007.8
20260506081519 56 317 1.0 4.0 0.00 0.03 0.00 87 1007.7
20260506081018 56 321 2.0 4.0 0.00 0.03 0.00 87 1007.8
20260506080517 56 268 1.0 4.0 0.00 0.03 0.00 87 1007.8
20260506073516 57 66 1.0 3.0 0.00 0.03 0.00 85 1007.9
20260506073013 57 272 0.0 4.0 0.00 0.03 0.00 85 1008.0
20260506072513 58 272 1.0 5.0 0.00 0.03 0.00 85 1008.0
20260506072011 58 282 0.0 5.0 0.00 0.03 0.00 85 1007.9
20260506071512 58 322 0.0 3.0 0.00 0.03 0.00 84 1007.9
20260506071011 58 322 0.0 4.0 0.00 0.03 0.00 84 1007.9
20260506070510 58 322 1.0 4.0 0.00 0.03 0.00 83 1007.8
20260506062513 59 253 2.0 7.0 0.00 0.03 0.00 82 1007.6
20260506062008 59 299 2.0 8.0 0.00 0.03 0.00 82 1007.6
20260506061509 59 254 0.0 8.0 0.00 0.03 0.00 82 1007.6
20260506061008 59 310 1.0 8.0 0.00 0.03 0.00 82 1007.7
20260506060507 59 307 0.0 4.0 0.00 0.03 0.00 83 1007.6
20260506051003 58 246 1.0 2.0 0.00 0.03 0.00 84 1007.9
20260506050502 58 358 0.0 5.0 0.00 0.03 0.00 83 1007.9
20260506045001 58 246 0.0 3.0 0.00 0.03 0.00 82 1008.0
20260506044601 58 343 0.0 3.0 0.00 0.03 0.00 83 1008.1
20260506044059 59 344 0.0 3.0 0.00 0.03 0.00 82 1008.2
20260506043558 59 344 1.0 3.0 0.00 0.03 0.00 81 1008.1
20260506043100 59 270 0.0 5.0 0.00 0.03 0.00 82 1008.1
20260506042559 59 265 1.0 5.0 0.00 0.03 0.00 82 1008.2
20260506042058 59 260 1.0 3.0 0.00 0.03 0.00 82 1008.2
20260506041604 59 231 0.0 4.0 0.00 0.03 0.00 82 1008.2
20260506041056 59 301 1.0 4.0 0.00 0.03 0.00 81 1008.3